• In Hungary
  • List of Countries
  • For 7 days
  • Water Temperature
  • Satellite Maps
  • Weather Map
  • News
  • Weather Widgets
  • user-avatar
    Login

    Hourly Weather Stepanovka

    Today, 23 May, Wednesday

    Time Temperature Precipitation Wind Pressure Humidity
    00:00 +16°C° 0.7 mm 3 mps 753 mmHg 89%
    01:00 +16°C° 0.9 mm 3 mps 753 mmHg 89%
    02:00 +15°C° 0.9 mm 2 mps 753 mmHg 90%
    03:00 +16°C° 0 mm 3 mps 753 mmHg 92%
    04:00 +16°C° 1.3 mm 3 mps 753 mmHg 91%
    05:00 +16°C° 1.3 mm 2 mps 753 mmHg 90%
    06:00 +17°C° 1.3 mm 2 mps 752 mmHg 89%
    07:00 +18°C° 0.2 mm 3 mps 752 mmHg 84%
    08:00 +19°C° 0.2 mm 3 mps 752 mmHg 79%
    09:00 +21°C° 0.2 mm 3 mps 752 mmHg 74%
    10:00 +22°C° 0 mm 3 mps 752 mmHg 73%
    11:00 +22°C° 0 mm 3 mps 752 mmHg 71%
    12:00 +24°C° 0 mm 3 mps 752 mmHg 70%
    13:00 +25°C° 0 mm 3 mps 752 mmHg 70%
    14:00 +25°C° 0 mm 3 mps 752 mmHg 70%
    15:00 +26°C° 0 mm 3 mps 751 mmHg 70%
    16:00 +25°C° 0 mm 2 mps 751 mmHg 73%
    17:00 +24°C° 0 mm 2 mps 751 mmHg 77%
    18:00 +24°C° 0 mm 2 mps 750 mmHg 80%
    19:00 +23°C° 0.1 mm 2 mps 750 mmHg 82%
    20:00 +21°C° 0.1 mm 2 mps 750 mmHg 83%
    21:00 +20°C° 0.1 mm 3 mps 750 mmHg 85%
    22:00 +19°C° 1.2 mm 3 mps 750 mmHg 86%
    23:00 +19°C° 1.2 mm 4 mps 749 mmHg 87%

    Tomorrow, 24 May, Thursday

    Time Temperature Precipitation Wind Pressure Humidity
    00:00 +17°C° 1.2 mm 5 mps 749 mmHg 88%
    01:00 +17°C° 0.3 mm 5 mps 749 mmHg 88%
    02:00 +17°C° 0.3 mm 5 mps 748 mmHg 87%
    03:00 +16°C° 0.3 mm 6 mps 748 mmHg 87%
    04:00 +16°C° 0 mm 5 mps 747 mmHg 87%
    05:00 +16°C° 0 mm 5 mps 747 mmHg 87%
    06:00 +17°C° 0 mm 4 mps 747 mmHg 87%
    07:00 +18°C° 0 mm 4 mps 747 mmHg 83%
    08:00 +20°C° 0 mm 3 mps 747 mmHg 80%
    09:00 +21°C° 0 mm 3 mps 747 mmHg 76%
    10:00 +22°C° 0 mm 3 mps 746 mmHg 73%
    11:00 +24°C° 0 mm 3 mps 746 mmHg 70%
    12:00 +25°C° 0 mm 3 mps 746 mmHg 68%
    13:00 +25°C° 0 mm 3 mps 746 mmHg 67%
    14:00 +26°C° 0 mm 3 mps 746 mmHg 67%
    15:00 +26°C° 0 mm 3 mps 745 mmHg 66%
    16:00 +25°C° 0.2 mm 3 mps 745 mmHg 71%
    17:00 +24°C° 0.2 mm 3 mps 745 mmHg 75%
    18:00 +24°C° 0.2 mm 2 mps 745 mmHg 79%
    19:00 +21°C° 0.1 mm 3 mps 744 mmHg 82%
    20:00 +20°C° 0.1 mm 4 mps 744 mmHg 85%
    21:00 +19°C° 0.1 mm 4 mps 744 mmHg 88%
    22:00 +19°C° 0.1 mm 4 mps 744 mmHg 90%
    23:00 +18°C° 0.1 mm 4 mps 744 mmHg 92%

    Day after tomorrow, 25 May, Friday

    Time Temperature Precipitation Wind Pressure Humidity
    00:00 +17°C° 0.1 mm 5 mps 744 mmHg 94%
    01:00 +17°C° 0.1 mm 5 mps 744 mmHg 94%
    02:00 +17°C° 0.1 mm 5 mps 744 mmHg 94%
    03:00 +16°C° 0.1 mm 5 mps 744 mmHg 94%
    04:00 +16°C° 0.1 mm 5 mps 744 mmHg 93%
    05:00 +16°C° 0.1 mm 6 mps 745 mmHg 92%
    06:00 +16°C° 0.1 mm 6 mps 745 mmHg 92%
    07:00 +17°C° 0.1 mm 7 mps 746 mmHg 89%
    08:00 +17°C° 0.1 mm 7 mps 746 mmHg 86%
    09:00 +17°C° 0.1 mm 8 mps 747 mmHg 83%
    10:00 +18°C° 0 mm 8 mps 747 mmHg 79%
    11:00 +20°C° 0 mm 8 mps 748 mmHg 75%
    12:00 +20°C° 0 mm 8 mps 748 mmHg 71%
    13:00 +20°C° 0 mm 8 mps 749 mmHg 68%
    14:00 +20°C° 0 mm 8 mps 749 mmHg 65%
    15:00 +19°C° 0 mm 9 mps 749 mmHg 61%
    16:00 +18°C° 0 mm 8 mps 750 mmHg 63%
    17:00 +17°C° 0 mm 8 mps 750 mmHg 64%
    18:00 +15°C° 0 mm 7 mps 751 mmHg 65%
    19:00 +14°C° 0 mm 7 mps 751 mmHg 65%
    20:00 +13°C° 0 mm 6 mps 752 mmHg 64%
    21:00 +10°C° 0 mm 6 mps 753 mmHg 64%
    22:00 +9°C° 0 mm 5 mps 753 mmHg 63%
    23:00 +9°C° 0 mm 5 mps 754 mmHg 62%

    26 May, Saturday

    Time Temperature Precipitation Wind Pressure Humidity
    00:00 +8°C° 0 mm 5 mps 754 mmHg 61%
    01:00 +7°C° 0 mm 4 mps 755 mmHg 62%
    02:00 +7°C° 0 mm 4 mps 755 mmHg 63%
    03:00 +6°C° 0 mm 4 mps 756 mmHg 64%
    04:00 +6°C° 0 mm 4 mps 756 mmHg 66%
    05:00 +7°C° 0 mm 5 mps 757 mmHg 67%
    06:00 +7°C° 0 mm 5 mps 757 mmHg 68%
    07:00 +8°C° 0 mm 5 mps 757 mmHg 63%
    08:00 +10°C° 0 mm 6 mps 758 mmHg 58%
    09:00 +11°C° 0 mm 6 mps 758 mmHg 54%
    10:00 +13°C° 0 mm 6 mps 758 mmHg 52%
    11:00 +14°C° 0 mm 6 mps 758 mmHg 51%
    12:00 +15°C° 0 mm 6 mps 759 mmHg 50%
    13:00 +15°C° 0 mm 6 mps 758 mmHg 50%
    14:00 +16°C° 0 mm 5 mps 758 mmHg 50%
    15:00 +16°C° 0 mm 5 mps 758 mmHg 50%
    16:00 +16°C° 0 mm 5 mps 758 mmHg 54%
    17:00 +17°C° 0 mm 4 mps 758 mmHg 58%
    18:00 +16°C° 0 mm 3 mps 758 mmHg 61%
    19:00 +13°C° 0 mm 3 mps 758 mmHg 64%
    20:00 +13°C° 0 mm 2 mps 758 mmHg 68%
    21:00 +10°C° 0 mm 2 mps 758 mmHg 71%
    22:00 +9°C° 0 mm 2 mps 758 mmHg 71%
    23:00 +10°C° 0 mm 1 mps 759 mmHg 71%

    27 May, Sunday

    Time Temperature Precipitation Wind Pressure Humidity
    00:00 +9°C° 0 mm 1 mps 759 mmHg 72%
    01:00 +9°C° 0 mm 1 mps 759 mmHg 72%
    02:00 +8°C° 0 mm 1 mps 759 mmHg 73%
    03:00 +7°C° 0 mm 0 mps 759 mmHg 73%
    04:00 +9°C° 0 mm 1 mps 759 mmHg 72%
    05:00 +10°C° 0 mm 1 mps 758 mmHg 71%
    06:00 +11°C° 0 mm 1 mps 758 mmHg 70%
    07:00 +13°C° 0 mm 1 mps 758 mmHg 66%
    08:00 +14°C° 0 mm 2 mps 758 mmHg 62%
    09:00 +16°C° 0 mm 2 mps 757 mmHg 57%
    10:00 +17°C° 0 mm 2 mps 757 mmHg 56%
    11:00 +18°C° 0 mm 3 mps 757 mmHg 55%
    12:00 +20°C° 0 mm 3 mps 756 mmHg 54%
    13:00 +20°C° 0 mm 3 mps 756 mmHg 55%
    14:00 +21°C° 0 mm 3 mps 755 mmHg 56%
    15:00 +21°C° 0 mm 3 mps 755 mmHg 56%
    16:00 +21°C° 0 mm 3 mps 754 mmHg 61%
    17:00 +20°C° 0 mm 3 mps 754 mmHg 65%
    18:00 +20°C° 0 mm 3 mps 753 mmHg 69%
    19:00 +18°C° 0 mm 3 mps 753 mmHg 75%
    20:00 +17°C° 0 mm 3 mps 753 mmHg 80%
    21:00 +14°C° 0 mm 3 mps 752 mmHg 85%
    22:00 +14°C° 0 mm 3 mps 752 mmHg 87%
    23:00 +13°C° 0 mm 3 mps 752 mmHg 88%

    28 May, Monday

    Time Temperature Precipitation Wind Pressure Humidity
    00:00 +13°C° 0 mm 4 mps 752 mmHg 89%
    01:00 +12°C° 0 mm 4 mps 752 mmHg 90%
    02:00 +12°C° 0 mm 4 mps 752 mmHg 91%
    03:00 +12°C° 0 mm 4 mps 752 mmHg 92%
    04:00 +12°C° 0 mm 4 mps 752 mmHg 91%
    05:00 +12°C° 0 mm 4 mps 752 mmHg 90%
    06:00 +13°C° 0 mm 4 mps 752 mmHg 88%
    07:00 +14°C° 0 mm 4 mps 752 mmHg 78%
    08:00 +15°C° 0 mm 4 mps 753 mmHg 68%
    09:00 +17°C° 0 mm 4 mps 753 mmHg 58%
    10:00 +18°C° 0 mm 4 mps 753 mmHg 54%
    11:00 +18°C° 0 mm 4 mps 753 mmHg 51%
    12:00 +19°C° 0 mm 4 mps 753 mmHg 48%
    13:00 +19°C° 0 mm 4 mps 753 mmHg 49%
    14:00 +19°C° 0 mm 5 mps 753 mmHg 50%
    15:00 +19°C° 0 mm 5 mps 753 mmHg 52%
    16:00 +19°C° 0 mm 4 mps 753 mmHg 56%
    17:00 +18°C° 0 mm 4 mps 753 mmHg 60%
    18:00 +18°C° 0 mm 4 mps 753 mmHg 64%
    19:00 +16°C° 0 mm 3 mps 753 mmHg 67%
    20:00 +13°C° 0 mm 3 mps 753 mmHg 70%
    21:00 +11°C° 0 mm 3 mps 753 mmHg 72%
    22:00 +11°C° 0 mm 3 mps 753 mmHg 73%
    23:00 +10°C° 0 mm 3 mps 753 mmHg 74%
    Show more